Downstream station:
SHEF ID: WWCO2 Wewoka Creek nr Wetumka OK
STATION TYPE:
PRECIP STAGE RIV-FLOW VOLTAGE BAT-LOAD
in ft cfs volt volt
Ccp-Rev Ccp-Rev Ccp-Rev Ccp-Rev Ccp-Rev
(US/Central)
01/21 00:00 0.00 4.48 0 12.65 12.49
01/21 01:00 0.00 4.48 0 12.57 12.41
01/21 02:00 0.00 4.48 0 12.57 12.41
01/21 03:00 0.00 4.48 0 12.57 12.41
01/21 04:00 0.00 4.48 0 12.49 12.41
01/21 05:00 0.00 4.48 0 12.49 12.41
01/21 06:00 0.00 4.48 0 12.49 12.33
01/21 07:00 0.00 4.48 0 12.41 12.33
01/21 08:00 0.00 4.48 0 12.41 12.33
01/21 09:00 0.00 4.48 0 13.21 12.89
01/21 10:00 0.00 4.48 0 13.60 13.68
01/21 11:00 0.00 4.85 0 13.53 13.60
01/21 12:00 0.00 4.85 0 13.53 14.00
01/21 13:00 0.00 4.46 0 13.68 14.08
01/21 14:00 0.00 4.42 0 13.44 14.08
01/21 15:00 0.00 4.48 0 13.92 13.37
01/21 16:00 0.00 4.48 0 13.92 13.84
01/21 17:00 0.00 4.48 0 13.44 13.53
01/21 18:00 0.00 4.48 0 14.08 13.37
01/21 19:00 0.00 4.48 0 12.97 12.81
01/21 20:00 0.00 4.48 0 12.81 12.73
01/21 21:00 0.00 4.48 0 12.73 12.65
01/21 22:00 0.00 4.48 0 12.73 12.57
01/21 23:00 0.00 4.48 0 12.65 12.57